Time,TemperatureF,DewpointF,PressureIn,WindDirection,WindDirectionDegrees,WindSpeedMPH,WindSpeedGustMPH,Humidity,HourlyPrecipIn,Conditions,Clouds,dailyrainin,SoftwareType,DateUTC
2013-05-13 00:01:00,29.4,25.2,30.13,North,5,0.0,0.0,84,0.00,,,0.00,Wunderground v.1.15,2013-05-13 04:01:00,
2013-05-13 00:02:00,29.4,25.2,30.13,North,5,0.0,0.0,84,0.00,,,0.00,Wunderground v.1.15,2013-05-13 04:02:00,
2013-05-13 00:03:00,29.4,25.2,30.13,North,360,0.0,0.0,84,0.00,,,0.00,Wunderground v.1.15,2013-05-13 04:03:00,
2013-05-13 00:05:00,29.3,25.1,30.13,North,5,0.0,0.0,84,0.00,,,0.00,Wunderground v.1.15,2013-05-13 04:05:00,
2013-05-13 00:10:00,29.2,25.3,30.13,North,360,0.0,0.0,85,0.00,,,0.00,Wunderground v.1.15,2013-05-13 04:10:00,
2013-05-13 00:15:00,29.0,25.1,30.13,North,5,0.0,0.0,85,0.00,,,0.00,Wunderground v.1.15,2013-05-13 04:15:00,
2013-05-13 00:21:00,28.9,25.0,30.13,North,5,0.0,0.0,85,0.00,,,0.00,Wunderground v.1.15,2013-05-13 04:21:00,
2013-05-13 00:26:00,28.9,25.2,30.14,North,5,0.0,1.0,86,0.00,,,0.00,Wunderground v.1.15,2013-05-13 04:26:00,
2013-05-13 00:32:00,28.8,25.1,30.13,North,360,0.0,0.0,86,0.00,,,0.00,Wunderground v.1.15,2013-05-13 04:32:00,
2013-05-13 00:38:00,28.9,25.2,30.13,North,5,0.0,1.0,86,0.00,,,0.00,Wunderground v.1.15,2013-05-13 04:38:00,
2013-05-13 00:43:00,29.1,25.4,30.13,North,360,1.0,2.0,86,0.00,,,0.00,Wunderground v.1.15,2013-05-13 04:43:00,
2013-05-13 00:49:00,30.1,26.1,30.14,North,5,1.0,1.0,85,0.00,,,0.00,Wunderground v.1.15,2013-05-13 04:49:00,
2013-05-13 00:54:00,30.6,26.3,30.14,North,5,0.0,1.0,84,0.00,,,0.00,Wunderground v.1.15,2013-05-13 04:54:00,
2013-05-13 01:00:00,30.9,26.3,30.14,North,5,0.0,0.0,83,0.00,,,0.00,Wunderground v.1.15,2013-05-13 05:00:00,
2013-05-13 01:05:00,31.0,26.1,30.14,North,5,0.0,0.0,82,0.00,,,0.00,Wunderground v.1.15,2013-05-13 05:05:00,
2013-05-13 01:11:00,30.9,25.8,30.14,North,360,0.0,0.0,81,0.00,,,0.00,Wunderground v.1.15,2013-05-13 05:11:00,
2013-05-13 01:16:00,30.9,25.8,30.14,North,5,0.0,0.0,81,0.00,,,0.00,Wunderground v.1.15,2013-05-13 05:16:00,
2013-05-13 01:22:00,30.9,25.5,30.14,North,360,0.0,0.0,80,0.00,,,0.00,Wunderground v.1.15,2013-05-13 05:22:00,
2013-05-13 01:28:00,31.0,25.9,30.14,North,360,0.0,0.0,81,0.00,,,0.00,Wunderground v.1.15,2013-05-13 05:28:00,
2013-05-13 01:33:00,30.8,25.4,30.14,North,5,0.0,0.0,80,0.00,,,0.00,Wunderground v.1.15,2013-05-13 05:33:00,
2013-05-13 01:39:00,30.5,25.1,30.14,North,5,0.0,0.0,80,0.00,,,0.00,Wunderground v.1.15,2013-05-13 05:39:00,
2013-05-13 01:44:00,30.4,25.3,30.14,North,5,0.0,0.0,81,0.00,,,0.00,Wunderground v.1.15,2013-05-13 05:44:00,
2013-05-13 01:50:00,30.4,25.3,30.14,North,5,0.0,0.0,81,0.00,,,0.00,Wunderground v.1.15,2013-05-13 05:50:00,
2013-05-13 01:55:00,30.4,25.3,30.14,North,360,0.0,0.0,81,0.00,,,0.00,Wunderground v.1.15,2013-05-13 05:55:00,
2013-05-13 02:01:00,30.4,25.3,30.14,North,360,0.0,0.0,81,0.00,,,0.00,Wunderground v.1.15,2013-05-13 06:01:00,
2013-05-13 02:06:00,30.3,25.2,30.14,North,5,0.0,0.0,81,0.00,,,0.00,Wunderground v.1.15,2013-05-13 06:06:00,
2013-05-13 02:13:00,29.9,24.8,30.14,North,360,0.0,0.0,81,0.00,,,0.00,Wunderground v.1.15,2013-05-13 06:13:00,
2013-05-13 02:18:00,29.6,24.8,30.14,North,360,0.0,1.0,82,0.00,,,0.00,Wunderground v.1.15,2013-05-13 06:18:00,
2013-05-13 02:23:00,29.3,24.5,30.14,North,5,0.0,0.0,82,0.00,,,0.00,Wunderground v.1.15,2013-05-13 06:23:00,
2013-05-13 02:29:00,29.1,24.6,30.14,North,5,0.0,0.0,83,0.00,,,0.00,Wunderground v.1.15,2013-05-13 06:29:00,
2013-05-13 02:34:00,28.8,24.3,30.14,North,5,0.0,0.0,83,0.00,,,0.00,Wunderground v.1.15,2013-05-13 06:34:00,
2013-05-13 02:40:00,28.5,24.0,30.14,North,5,0.0,0.0,83,0.00,,,0.00,Wunderground v.1.15,2013-05-13 06:40:00,
2013-05-13 02:45:00,28.2,24.0,30.13,North,5,0.0,0.0,84,0.00,,,0.00,Wunderground v.1.15,2013-05-13 06:45:00,
2013-05-13 02:51:00,28.0,24.1,30.13,North,5,0.0,2.0,85,0.00,,,0.00,Wunderground v.1.15,2013-05-13 06:51:00,
2013-05-13 02:56:00,28.0,24.1,30.13,North,5,0.0,2.0,85,0.00,,,0.00,Wunderground v.1.15,2013-05-13 06:56:00,
2013-05-13 03:02:00,28.3,24.4,30.13,North,360,0.0,0.0,85,0.00,,,0.00,Wunderground v.1.15,2013-05-13 07:02:00,
2013-05-13 03:08:00,28.7,24.8,30.14,North,5,0.0,0.0,85,0.00,,,0.00,Wunderground v.1.15,2013-05-13 07:08:00,
2013-05-13 03:13:00,28.8,24.6,30.14,North,5,0.0,0.0,84,0.00,,,0.00,Wunderground v.1.15,2013-05-13 07:13:00,
2013-05-13 03:19:00,28.7,24.2,30.14,North,5,0.0,0.0,83,0.00,,,0.00,Wunderground v.1.15,2013-05-13 07:19:00,
2013-05-13 03:24:00,28.6,24.4,30.14,North,5,0.0,0.0,84,0.00,,,0.00,Wunderground v.1.15,2013-05-13 07:24:00,
2013-05-13 03:29:00,28.5,24.0,30.14,North,5,0.0,0.0,83,0.00,,,0.00,Wunderground v.1.15,2013-05-13 07:29:00,
2013-05-13 03:35:00,28.5,24.0,30.14,North,5,0.0,0.0,83,0.00,,,0.00,Wunderground v.1.15,2013-05-13 07:35:00,
2013-05-13 03:40:00,28.3,24.1,30.14,North,5,0.0,0.0,84,0.00,,,0.00,Wunderground v.1.15,2013-05-13 07:40:00,
2013-05-13 03:45:00,28.1,23.9,30.14,North,5,0.0,0.0,84,0.00,,,0.00,Wunderground v.1.15,2013-05-13 07:45:00,
2013-05-13 03:51:00,27.9,23.7,30.14,North,360,0.0,0.0,84,0.00,,,0.00,Wunderground v.1.15,2013-05-13 07:51:00,
2013-05-13 03:56:00,27.7,23.5,30.14,North,5,0.0,0.0,84,0.00,,,0.00,Wunderground v.1.15,2013-05-13 07:56:00,
2013-05-13 04:02:00,27.4,23.2,30.14,North,5,0.0,0.0,84,0.00,,,0.00,Wunderground v.1.15,2013-05-13 08:02:00,
2013-05-13 04:08:00,27.1,23.2,30.14,North,5,0.0,0.0,85,0.00,,,0.00,Wunderground v.1.15,2013-05-13 08:08:00,
2013-05-13 04:13:00,26.9,23.0,30.14,North,5,0.0,0.0,85,0.00,,,0.00,Wunderground v.1.15,2013-05-13 08:13:00,
2013-05-13 04:19:00,26.5,22.6,30.14,North,5,0.0,0.0,85,0.00,,,0.00,Wunderground v.1.15,2013-05-13 08:19:00,
2013-05-13 04:25:00,26.5,23.2,30.14,North,5,0.0,2.0,87,0.00,,,0.00,Wunderground v.1.15,2013-05-13 08:25:00,
2013-05-13 04:30:00,26.9,23.8,30.14,North,360,0.0,0.0,88,0.00,,,0.00,Wunderground v.1.15,2013-05-13 08:30:00,
2013-05-13 04:35:00,27.3,23.9,30.14,North,5,0.0,1.0,87,0.00,,,0.00,Wunderground v.1.15,2013-05-13 08:35:00,
2013-05-13 04:41:00,27.8,24.4,30.14,North,360,0.0,0.0,87,0.00,,,0.00,Wunderground v.1.15,2013-05-13 08:41:00,
2013-05-13 04:46:00,28.1,24.5,30.14,North,5,0.0,0.0,86,0.00,,,0.00,Wunderground v.1.15,2013-05-13 08:46:00,
2013-05-13 04:52:00,28.6,24.7,30.14,North,5,1.0,2.0,85,0.00,,,0.00,Wunderground v.1.15,2013-05-13 08:52:00,
2013-05-13 04:58:00,29.0,24.5,30.14,NNW,327,1.0,3.0,83,0.00,,,0.00,Wunderground v.1.15,2013-05-13 08:58:00,
2013-05-13 05:03:00,29.3,24.5,30.14,NNW,328,0.0,1.0,82,0.00,,,0.00,Wunderground v.1.15,2013-05-13 09:03:00,
2013-05-13 05:09:00,29.5,24.7,30.14,NNW,328,0.0,0.0,82,0.00,,,0.00,Wunderground v.1.15,2013-05-13 09:09:00,
2013-05-13 05:14:00,29.4,24.3,30.14,NNW,327,0.0,2.0,81,0.00,,,0.00,Wunderground v.1.15,2013-05-13 09:14:00,
2013-05-13 05:20:00,29.4,24.3,30.14,NNW,327,0.0,0.0,81,0.00,,,0.00,Wunderground v.1.15,2013-05-13 09:20:00,
2013-05-13 05:25:00,29.3,24.2,30.14,NNW,328,0.0,2.0,81,0.00,,,0.00,Wunderground v.1.15,2013-05-13 09:25:00,
2013-05-13 05:31:00,29.0,23.9,30.14,NNW,328,0.0,0.0,81,0.00,,,0.00,Wunderground v.1.15,2013-05-13 09:31:00,
2013-05-13 05:36:00,28.8,23.7,30.14,NNW,327,0.0,0.0,81,0.00,,,0.00,Wunderground v.1.15,2013-05-13 09:36:00,
2013-05-13 05:41:00,28.5,23.4,30.14,NNW,328,0.0,0.0,81,0.00,,,0.00,Wunderground v.1.15,2013-05-13 09:41:00,
2013-05-13 05:46:00,28.2,23.4,30.14,NNW,327,0.0,0.0,82,0.00,,,0.00,Wunderground v.1.15,2013-05-13 09:46:00,
2013-05-13 05:53:00,27.9,23.1,30.14,NNW,328,0.0,0.0,82,0.00,,,0.00,Wunderground v.1.15,2013-05-13 09:53:00,
2013-05-13 05:58:00,27.7,23.2,30.14,NNW,328,0.0,0.0,83,0.00,,,0.00,Wunderground v.1.15,2013-05-13 09:58:00,
2013-05-13 06:03:00,27.8,23.6,30.14,NNW,328,0.0,1.0,84,0.00,,,0.00,Wunderground v.1.15,2013-05-13 10:03:00,
2013-05-13 06:09:00,28.3,24.1,30.14,NNW,328,1.0,1.0,84,0.00,,,0.00,Wunderground v.1.15,2013-05-13 10:09:00,
2013-05-13 06:14:00,28.5,24.0,30.14,NNW,328,0.0,2.0,83,0.00,,,0.00,Wunderground v.1.15,2013-05-13 10:14:00,
2013-05-13 06:20:00,28.5,24.0,30.15,NNW,328,0.0,0.0,83,0.00,,,0.00,Wunderground v.1.15,2013-05-13 10:20:00,
2013-05-13 06:25:00,28.3,23.8,30.15,NNW,327,0.0,0.0,83,0.00,,,0.00,Wunderground v.1.15,2013-05-13 10:25:00,
2013-05-13 06:31:00,28.1,23.6,30.15,NNW,328,0.0,2.0,83,0.00,,,0.00,Wunderground v.1.15,2013-05-13 10:31:00,
2013-05-13 06:36:00,28.2,24.0,30.15,NNW,328,0.0,2.0,84,0.00,,,0.00,Wunderground v.1.15,2013-05-13 10:36:00,
2013-05-13 06:41:00,28.3,24.1,30.15,NNW,328,0.0,0.0,84,0.00,,,0.00,Wunderground v.1.15,2013-05-13 10:41:00,
2013-05-13 06:46:00,28.5,24.3,30.15,NNW,328,0.0,0.0,84,0.00,,,0.00,Wunderground v.1.15,2013-05-13 10:46:00,
2013-05-13 06:53:00,28.8,24.6,30.16,NNW,327,0.0,1.0,84,0.00,,,0.00,Wunderground v.1.15,2013-05-13 10:53:00,
2013-05-13 06:58:00,29.2,24.7,30.16,NNW,328,0.0,1.0,83,0.00,,,0.00,Wunderground v.1.15,2013-05-13 10:58:00,
2013-05-13 07:04:00,29.6,24.8,30.16,NW,326,1.0,2.0,82,0.00,,,0.00,Wunderground v.1.15,2013-05-13 11:04:00,
2013-05-13 07:10:00,30.0,25.2,30.16,NW,326,1.0,1.0,82,0.00,,,0.00,Wunderground v.1.15,2013-05-13 11:10:00,
2013-05-13 07:15:00,30.3,25.2,30.17,NW,311,1.0,4.0,81,0.00,,,0.00,Wunderground v.1.15,2013-05-13 11:15:00,
2013-05-13 07:21:00,30.7,25.6,30.17,NW,312,1.0,2.0,81,0.00,,,0.00,Wunderground v.1.15,2013-05-13 11:21:00,
2013-05-13 07:26:00,31.1,25.7,30.17,NW,306,1.0,3.0,80,0.00,,,0.00,Wunderground v.1.15,2013-05-13 11:26:00,
2013-05-13 07:32:00,31.5,25.7,30.17,NW,305,1.0,4.0,79,0.00,,,0.00,Wunderground v.1.15,2013-05-13 11:32:00,
2013-05-13 07:38:00,32.0,25.9,30.17,WNW,302,2.0,5.0,78,0.00,,,0.00,Wunderground v.1.15,2013-05-13 11:38:00,
2013-05-13 07:44:00,32.5,26.1,30.17,NW,321,2.0,4.0,77,0.00,,,0.00,Wunderground v.1.15,2013-05-13 11:44:00,
2013-05-13 07:49:00,32.9,26.2,30.18,NNW,337,2.0,2.0,76,0.00,,,0.00,Wunderground v.1.15,2013-05-13 11:49:00,
2013-05-13 07:55:00,33.3,26.2,30.18,NW,316,1.0,3.0,75,0.00,,,0.00,Wunderground v.1.15,2013-05-13 11:55:00,
2013-05-13 08:00:00,33.8,26.4,30.18,NNW,327,2.0,5.0,74,0.00,,,0.00,Wunderground v.1.15,2013-05-13 12:00:00,
2013-05-13 08:05:00,34.3,26.9,30.18,NNW,346,3.0,5.0,74,0.00,,,0.00,Wunderground v.1.15,2013-05-13 12:05:00,
2013-05-13 08:10:00,34.6,26.8,30.18,NNW,346,2.0,2.0,73,0.00,,,0.00,Wunderground v.1.15,2013-05-13 12:10:00,
2013-05-13 08:15:00,35.1,26.6,30.18,NNW,334,3.0,9.0,71,0.00,,,0.00,Wunderground v.1.15,2013-05-13 12:15:00,
2013-05-13 08:21:00,35.6,26.8,30.18,NNW,332,4.0,6.0,70,0.00,,,0.00,Wunderground v.1.15,2013-05-13 12:21:00,
2013-05-13 08:26:00,36.0,26.8,30.19,NNW,331,3.0,6.0,69,0.00,,,0.00,Wunderground v.1.15,2013-05-13 12:26:00,
2013-05-13 08:33:00,36.5,26.9,30.19,NNW,344,4.0,4.0,68,0.00,,,0.00,Wunderground v.1.15,2013-05-13 12:33:00,
2013-05-13 08:38:00,36.6,26.3,30.19,North,355,5.0,11.0,66,0.00,,,0.00,Wunderground v.1.15,2013-05-13 12:38:00,
2013-05-13 08:43:00,36.9,26.6,30.19,North,360,5.0,6.0,66,0.00,,,0.00,Wunderground v.1.15,2013-05-13 12:43:00,
2013-05-13 08:49:00,37.3,27.0,30.19,NNE,22,4.0,6.0,66,0.00,,,0.00,Wunderground v.1.15,2013-05-13 12:49:00,
2013-05-13 08:55:00,37.8,27.5,30.19,NNW,337,4.0,6.0,66,0.00,,,0.00,Wunderground v.1.15,2013-05-13 12:55:00,
2013-05-13 09:00:00,38.1,26.6,30.20,NNW,348,5.0,7.0,63,0.00,,,0.00,Wunderground v.1.15,2013-05-13 13:00:00,
2013-05-13 09:06:00,38.4,26.9,30.20,North,350,6.0,10.0,63,0.00,,,0.00,Wunderground v.1.15,2013-05-13 13:06:00,
2013-05-13 09:12:00,38.8,27.3,30.20,North,355,7.0,7.0,63,0.00,,,0.00,Wunderground v.1.15,2013-05-13 13:12:00,
2013-05-13 09:18:00,39.3,27.4,30.20,NNW,346,6.0,9.0,62,0.00,,,0.00,Wunderground v.1.15,2013-05-13 13:18:00,
2013-05-13 09:24:00,39.6,26.8,30.21,NNE,13,6.0,12.0,60,0.00,,,0.00,Wunderground v.1.15,2013-05-13 13:24:00,
2013-05-13 09:29:00,39.8,27.0,30.20,NNE,28,6.0,7.0,60,0.00,,,0.00,Wunderground v.1.15,2013-05-13 13:29:00,
2013-05-13 09:34:00,40.1,27.7,30.20,North,360,6.0,7.0,61,0.00,,,0.00,Wunderground v.1.15,2013-05-13 13:34:00,
2013-05-13 09:39:00,40.2,27.4,30.20,NNW,329,6.0,6.0,60,0.00,,,0.00,Wunderground v.1.15,2013-05-13 13:39:00,
2013-05-13 09:45:00,40.3,26.7,30.20,North,5,7.0,10.0,58,0.00,,,0.00,Wunderground v.1.15,2013-05-13 13:45:00,
2013-05-13 09:51:00,40.5,27.7,30.20,North,5,7.0,11.0,60,0.00,,,0.00,Wunderground v.1.15,2013-05-13 13:51:00,
2013-05-13 09:56:00,40.7,26.6,30.20,North,360,7.0,11.0,57,0.00,,,0.00,Wunderground v.1.15,2013-05-13 13:56:00,
2013-05-13 10:01:00,41.0,26.9,30.20,NNE,21,7.0,10.0,57,0.00,,,0.00,Wunderground v.1.15,2013-05-13 14:01:00,
2013-05-13 10:07:00,41.1,27.0,30.21,NNW,333,8.0,16.0,57,0.00,,,0.00,Wunderground v.1.15,2013-05-13 14:07:00,
2013-05-13 10:13:00,41.3,28.0,30.21,North,349,8.0,9.0,59,0.00,,,0.00,Wunderground v.1.15,2013-05-13 14:13:00,
2013-05-13 10:18:00,41.6,27.1,30.21,NW,317,7.0,10.0,56,0.00,,,0.00,Wunderground v.1.15,2013-05-13 14:18:00,
2013-05-13 10:23:00,41.9,28.6,30.21,North,355,6.0,7.0,59,0.00,,,0.00,Wunderground v.1.15,2013-05-13 14:23:00,
2013-05-13 10:28:00,42.3,28.6,30.21,North,355,6.0,13.0,58,0.00,,,0.00,Wunderground v.1.15,2013-05-13 14:28:00,
2013-05-13 10:34:00,42.5,28.3,30.21,NNE,25,7.0,12.0,57,0.00,,,0.00,Wunderground v.1.15,2013-05-13 14:34:00,
2013-05-13 10:40:00,42.8,28.6,30.21,NW,319,7.0,12.0,57,0.00,,,0.00,Wunderground v.1.15,2013-05-13 14:40:00,
2013-05-13 10:45:00,43.0,29.2,30.21,NW,319,6.0,13.0,58,0.00,,,0.00,Wunderground v.1.15,2013-05-13 14:45:00,
2013-05-13 10:51:00,42.9,27.8,30.21,WNW,286,5.0,6.0,55,0.00,,,0.00,Wunderground v.1.15,2013-05-13 14:51:00,
2013-05-13 10:56:00,43.3,28.2,30.21,ENE,61,5.0,8.0,55,0.00,,,0.00,Wunderground v.1.15,2013-05-13 14:56:00,
2013-05-13 11:02:00,43.4,28.7,30.21,NW,312,5.0,9.0,56,0.00,,,0.00,Wunderground v.1.15,2013-05-13 15:02:00,
2013-05-13 11:08:00,43.2,29.0,30.21,WNW,296,5.0,12.0,57,0.00,,,0.00,Wunderground v.1.15,2013-05-13 15:08:00,
2013-05-13 11:14:00,43.6,28.9,30.21,NNE,28,4.0,9.0,56,0.00,,,0.00,Wunderground v.1.15,2013-05-13 15:14:00,
2013-05-13 11:20:00,43.8,29.1,30.21,North,360,5.0,7.0,56,0.00,,,0.00,Wunderground v.1.15,2013-05-13 15:20:00,
2013-05-13 11:25:00,43.2,27.7,30.21,North,5,6.0,10.0,54,0.00,,,0.00,Wunderground v.1.15,2013-05-13 15:25:00,
2013-05-13 11:31:00,43.8,28.7,30.21,NNW,344,6.0,6.0,55,0.00,,,0.00,Wunderground v.1.15,2013-05-13 15:31:00,
2013-05-13 11:36:00,44.3,28.2,30.21,NNW,331,5.0,6.0,53,0.00,,,0.00,Wunderground v.1.15,2013-05-13 15:36:00,
2013-05-13 11:41:00,44.0,28.0,30.22,NNW,338,4.0,10.0,53,0.00,,,0.00,Wunderground v.1.15,2013-05-13 15:41:00,
2013-05-13 11:46:00,43.9,28.8,30.22,North,5,4.0,10.0,55,0.00,,,0.00,Wunderground v.1.15,2013-05-13 15:46:00,
2013-05-13 11:52:00,44.3,28.7,30.22,NE,37,4.0,5.0,54,0.00,,,0.00,Wunderground v.1.15,2013-05-13 15:52:00,
2013-05-13 11:57:00,44.3,28.2,30.22,West,281,4.0,7.0,53,0.00,,,0.00,Wunderground v.1.15,2013-05-13 15:57:00,
2013-05-13 12:04:00,44.0,28.4,30.22,NNE,31,5.0,10.0,54,0.00,,,0.00,Wunderground v.1.15,2013-05-13 16:04:00,
2013-05-13 12:09:00,44.4,28.8,30.21,NW,304,5.0,10.0,54,0.00,,,0.00,Wunderground v.1.15,2013-05-13 16:09:00,
2013-05-13 12:15:00,44.4,28.3,30.22,NNW,337,4.0,10.0,53,0.00,,,0.00,Wunderground v.1.15,2013-05-13 16:15:00,
2013-05-13 12:21:00,44.4,28.8,30.22,NNW,334,4.0,4.0,54,0.00,,,0.00,Wunderground v.1.15,2013-05-13 16:21:00,
2013-05-13 12:27:00,44.9,28.8,30.22,NNW,347,5.0,13.0,53,0.00,,,0.00,Wunderground v.1.15,2013-05-13 16:27:00,
2013-05-13 12:34:00,45.9,28.8,30.22,NNE,21,5.0,11.0,51,0.00,,,0.00,Wunderground v.1.15,2013-05-13 16:34:00,
2013-05-13 12:39:00,46.3,27.7,30.22,NNE,22,5.0,15.0,48,0.00,,,0.00,Wunderground v.1.15,2013-05-13 16:39:00,
2013-05-13 12:44:00,46.0,28.4,30.21,NNW,341,6.0,9.0,50,0.00,,,0.00,Wunderground v.1.15,2013-05-13 16:44:00,
2013-05-13 12:49:00,46.1,29.4,30.22,NW,304,5.0,9.0,52,0.00,,,0.00,Wunderground v.1.15,2013-05-13 16:49:00,
2013-05-13 12:54:00,46.2,28.6,30.22,NNW,328,5.0,5.0,50,0.00,,,0.00,Wunderground v.1.15,2013-05-13 16:54:00,
2013-05-13 13:00:00,45.9,27.8,30.22,WNW,302,5.0,5.0,49,0.00,,,0.00,Wunderground v.1.15,2013-05-13 17:00:00,
2013-05-13 13:06:00,46.3,27.7,30.22,NNW,336,5.0,10.0,48,0.00,,,0.00,Wunderground v.1.15,2013-05-13 17:06:00,
2013-05-13 13:12:00,47.0,29.3,30.22,NE,36,5.0,10.0,50,0.00,,,0.00,Wunderground v.1.15,2013-05-13 17:12:00,
2013-05-13 13:17:00,47.3,30.1,30.21,NNE,24,5.0,10.0,51,0.00,,,0.00,Wunderground v.1.15,2013-05-13 17:17:00,
2013-05-13 13:23:00,46.9,27.2,30.22,NNW,338,4.0,6.0,46,0.00,,,0.00,Wunderground v.1.15,2013-05-13 17:23:00,
2013-05-13 13:28:00,46.9,28.7,30.21,NNW,347,4.0,8.0,49,0.00,,,0.00,Wunderground v.1.15,2013-05-13 17:28:00,
2013-05-13 13:33:00,47.3,29.6,30.22,WNW,284,4.0,7.0,50,0.00,,,0.00,Wunderground v.1.15,2013-05-13 17:33:00,
2013-05-13 13:39:00,47.7,29.5,30.22,NNW,345,4.0,4.0,49,0.00,,,0.00,Wunderground v.1.15,2013-05-13 17:39:00,
2013-05-13 13:46:00,48.1,28.8,30.21,NNE,24,5.0,7.0,47,0.00,,,0.00,Wunderground v.1.15,2013-05-13 17:46:00,
2013-05-13 13:51:00,47.8,29.0,30.21,WNW,294,5.0,5.0,48,0.00,,,0.00,Wunderground v.1.15,2013-05-13 17:51:00,
2013-05-13 13:56:00,47.6,29.9,30.21,NW,313,4.0,5.0,50,0.00,,,0.00,Wunderground v.1.15,2013-05-13 17:56:00,
2013-05-13 14:03:00,47.9,28.6,30.21,NW,304,4.0,8.0,47,0.00,,,0.00,Wunderground v.1.15,2013-05-13 18:03:00,
2013-05-13 14:09:00,47.8,29.5,30.21,NW,326,5.0,5.0,49,0.00,,,0.00,Wunderground v.1.15,2013-05-13 18:09:00,
2013-05-13 14:15:00,48.1,30.3,30.21,WNW,286,3.0,5.0,50,0.00,,,0.00,Wunderground v.1.15,2013-05-13 18:15:00,
2013-05-13 14:20:00,48.9,29.5,30.21,NNE,15,2.0,4.0,47,0.00,,,0.00,Wunderground v.1.15,2013-05-13 18:20:00,
2013-05-13 14:26:00,49.0,29.6,30.21,North,349,2.0,5.0,47,0.00,,,0.00,Wunderground v.1.15,2013-05-13 18:26:00,
2013-05-13 14:31:00,49.4,31.0,30.21,NNW,348,4.0,7.0,49,0.00,,,0.00,Wunderground v.1.15,2013-05-13 18:31:00,
2013-05-13 14:38:00,49.7,29.2,30.21,NW,323,4.0,7.0,45,0.00,,,0.00,Wunderground v.1.15,2013-05-13 18:38:00,
2013-05-13 14:43:00,49.2,28.7,30.21,NNE,13,4.0,10.0,45,0.00,,,0.00,Wunderground v.1.15,2013-05-13 18:43:00,
2013-05-13 14:49:00,48.6,28.2,30.21,NNE,26,3.0,3.0,45,0.00,,,0.00,Wunderground v.1.15,2013-05-13 18:49:00,
2013-05-13 14:54:00,48.6,28.2,30.20,NE,34,4.0,10.0,45,0.00,,,0.00,Wunderground v.1.15,2013-05-13 18:54:00,
2013-05-13 15:00:00,48.5,28.1,30.20,North,360,4.0,5.0,45,0.00,,,0.00,Wunderground v.1.15,2013-05-13 19:00:00,
2013-05-13 15:05:00,48.9,28.5,30.21,NNW,329,3.0,5.0,45,0.00,,,0.00,Wunderground v.1.15,2013-05-13 19:05:00,
2013-05-13 15:10:00,49.4,28.9,30.21,NNW,340,4.0,9.0,45,0.00,,,0.00,Wunderground v.1.15,2013-05-13 19:10:00,
2013-05-13 15:16:00,49.2,27.1,30.20,West,267,4.0,9.0,42,0.00,,,0.00,Wunderground v.1.15,2013-05-13 19:16:00,
2013-05-13 15:21:00,49.1,27.5,30.20,WNW,295,1.0,4.0,43,0.00,,,0.00,Wunderground v.1.15,2013-05-13 19:21:00,
2013-05-13 15:26:00,48.9,27.4,30.20,North,355,1.0,6.0,43,0.00,,,0.00,Wunderground v.1.15,2013-05-13 19:26:00,
2013-05-13 15:33:00,49.7,28.6,30.20,NNW,338,3.0,4.0,44,0.00,,,0.00,Wunderground v.1.15,2013-05-13 19:33:00,
2013-05-13 15:38:00,49.5,27.9,30.20,NNW,348,4.0,4.0,43,0.00,,,0.00,Wunderground v.1.15,2013-05-13 19:38:00,
2013-05-13 15:43:00,50.1,29.6,30.19,North,360,2.0,3.0,45,0.00,,,0.00,Wunderground v.1.15,2013-05-13 19:43:00,
2013-05-13 15:48:00,51.0,28.7,30.19,North,360,1.0,3.0,42,0.00,,,0.00,Wunderground v.1.15,2013-05-13 19:48:00,
2013-05-13 15:54:00,50.7,27.8,30.19,NNW,346,2.0,4.0,41,0.00,,,0.00,Wunderground v.1.15,2013-05-13 19:54:00,
2013-05-13 15:59:00,50.0,26.6,30.19,NE,34,4.0,7.0,40,0.00,,,0.00,Wunderground v.1.15,2013-05-13 19:59:00,
2013-05-13 16:04:00,49.9,28.8,30.18,NNE,15,3.0,5.0,44,0.00,,,0.00,Wunderground v.1.15,2013-05-13 20:04:00,
2013-05-13 16:10:00,50.3,28.6,30.18,NE,37,2.0,5.0,43,0.00,,,0.00,Wunderground v.1.15,2013-05-13 20:10:00,
2013-05-13 16:15:00,50.1,27.9,30.18,NNE,28,2.0,5.0,42,0.00,,,0.00,Wunderground v.1.15,2013-05-13 20:15:00,
2013-05-13 16:21:00,49.7,26.9,30.18,West,279,2.0,4.0,41,0.00,,,0.00,Wunderground v.1.15,2013-05-13 20:21:00,
2013-05-13 16:26:00,50.2,30.2,30.18,West,279,2.0,4.0,46,0.00,,,0.00,Wunderground v.1.15,2013-05-13 20:26:00,
2013-05-13 16:32:00,50.8,28.5,30.18,NW,321,2.0,9.0,42,0.00,,,0.00,Wunderground v.1.15,2013-05-13 20:32:00,
2013-05-13 16:37:00,50.5,25.8,30.18,NNW,348,5.0,9.0,38,0.00,,,0.00,Wunderground v.1.15,2013-05-13 20:37:00,
2013-05-13 16:42:00,50.1,27.9,30.18,NNW,333,5.0,6.0,42,0.00,,,0.00,Wunderground v.1.15,2013-05-13 20:42:00,
2013-05-13 16:47:00,50.2,26.2,30.17,WNW,288,2.0,6.0,39,0.00,,,0.00,Wunderground v.1.15,2013-05-13 20:47:00,
2013-05-13 16:54:00,51.0,28.7,30.17,NW,323,2.0,5.0,42,0.00,,,0.00,Wunderground v.1.15,2013-05-13 20:54:00,
2013-05-13 16:59:00,51.4,27.2,30.17,NNE,31,3.0,6.0,39,0.00,,,0.00,Wunderground v.1.15,2013-05-13 20:59:00,
2013-05-13 17:05:00,51.5,29.1,30.17,NNE,33,2.0,3.0,42,0.00,,,0.00,Wunderground v.1.15,2013-05-13 21:05:00,
2013-05-13 17:10:00,51.2,27.1,30.17,WNW,283,1.0,1.0,39,0.00,,,0.00,Wunderground v.1.15,2013-05-13 21:10:00,
2013-05-13 17:16:00,51.7,27.5,30.16,North,10,1.0,4.0,39,0.00,,,0.00,Wunderground v.1.15,2013-05-13 21:16:00,
2013-05-13 17:21:00,52.6,28.3,30.16,NNW,341,1.0,6.0,39,0.00,,,0.00,Wunderground v.1.15,2013-05-13 21:21:00,
2013-05-13 17:26:00,52.8,28.5,30.16,NNW,343,3.0,9.0,39,0.00,,,0.00,Wunderground v.1.15,2013-05-13 21:26:00,
2013-05-13 17:33:00,52.9,28.0,30.16,WNW,298,2.0,5.0,38,0.00,,,0.00,Wunderground v.1.15,2013-05-13 21:33:00,
2013-05-13 17:39:00,53.1,28.8,30.16,NW,304,2.0,5.0,39,0.00,,,0.00,Wunderground v.1.15,2013-05-13 21:39:00,
2013-05-13 17:44:00,52.7,27.8,30.16,WNW,288,3.0,7.0,38,0.00,,,0.00,Wunderground v.1.15,2013-05-13 21:44:00,
2013-05-13 17:50:00,52.8,29.7,30.16,WNW,286,2.0,2.0,41,0.00,,,0.00,Wunderground v.1.15,2013-05-13 21:50:00,
2013-05-13 17:56:00,53.4,27.1,30.16,NNW,333,2.0,6.0,36,0.00,,,0.00,Wunderground v.1.15,2013-05-13 21:56:00,
2013-05-13 18:02:00,53.0,29.9,30.16,North,360,4.0,4.0,41,0.00,,,0.00,Wunderground v.1.15,2013-05-13 22:02:00,
2013-05-13 18:08:00,53.1,28.8,30.15,West,279,4.0,5.0,39,0.00,,,0.00,Wunderground v.1.15,2013-05-13 22:08:00,
2013-05-13 18:13:00,53.0,28.0,30.15,WSW,243,3.0,3.0,38,0.00,,,0.00,Wunderground v.1.15,2013-05-13 22:13:00,
2013-05-13 18:19:00,52.9,27.3,30.15,WNW,296,1.0,5.0,37,0.00,,,0.00,Wunderground v.1.15,2013-05-13 22:19:00,
2013-05-13 18:24:00,53.0,29.9,30.15,WNW,293,2.0,5.0,41,0.00,,,0.00,Wunderground v.1.15,2013-05-13 22:24:00,
2013-05-13 18:31:00,53.3,28.3,30.15,North,360,2.0,9.0,38,0.00,,,0.00,Wunderground v.1.15,2013-05-13 22:31:00,
2013-05-13 18:36:00,53.3,28.9,30.15,NW,326,2.0,9.0,39,0.00,,,0.00,Wunderground v.1.15,2013-05-13 22:36:00,
2013-05-13 18:41:00,53.7,28.7,30.15,WNW,290,1.0,4.0,38,0.00,,,0.00,Wunderground v.1.15,2013-05-13 22:41:00,
2013-05-13 18:46:00,53.7,29.3,30.15,West,261,1.0,4.0,39,0.00,,,0.00,Wunderground v.1.15,2013-05-13 22:46:00,
2013-05-13 18:52:00,53.6,27.9,30.15,West,265,1.0,6.0,37,0.00,,,0.00,Wunderground v.1.15,2013-05-13 22:52:00,
2013-05-13 18:58:00,53.0,28.0,30.16,WNW,288,2.0,6.0,38,0.00,,,0.00,Wunderground v.1.15,2013-05-13 22:58:00,
2013-05-13 19:03:00,53.0,27.4,30.15,WNW,303,2.0,5.0,37,0.00,,,0.00,Wunderground v.1.15,2013-05-13 23:03:00,
2013-05-13 19:09:00,52.5,27.6,30.15,NW,309,2.0,2.0,38,0.00,,,0.00,Wunderground v.1.15,2013-05-13 23:09:00,
2013-05-13 19:14:00,52.2,26.0,30.15,NW,309,1.0,2.0,36,0.00,,,0.00,Wunderground v.1.15,2013-05-13 23:14:00,
2013-05-13 19:20:00,52.2,26.7,30.15,NW,313,0.0,0.0,37,0.00,,,0.00,Wunderground v.1.15,2013-05-13 23:20:00,
2013-05-13 19:25:00,52.3,27.4,30.15,NW,318,1.0,4.0,38,0.00,,,0.00,Wunderground v.1.15,2013-05-13 23:25:00,
2013-05-13 19:30:00,52.3,26.8,30.16,NW,311,1.0,2.0,37,0.00,,,0.00,Wunderground v.1.15,2013-05-13 23:30:00,
2013-05-13 19:35:00,52.2,26.7,30.15,NW,310,1.0,2.0,37,0.00,,,0.00,Wunderground v.1.15,2013-05-13 23:35:00,
2013-05-13 19:41:00,52.3,26.8,30.16,NW,311,1.0,1.0,37,0.00,,,0.00,Wunderground v.1.15,2013-05-13 23:41:00,
2013-05-13 19:46:00,52.1,27.2,30.16,NW,310,1.0,1.0,38,0.00,,,0.00,Wunderground v.1.15,2013-05-13 23:46:00,
2013-05-13 19:53:00,51.8,27.0,30.16,NW,311,0.0,0.0,38,0.00,,,0.00,Wunderground v.1.15,2013-05-13 23:53:00,
2013-05-13 19:58:00,51.4,26.6,30.16,NW,310,0.0,5.0,38,0.00,,,0.00,Wunderground v.1.15,2013-05-13 23:58:00,
2013-05-13 20:03:00,51.1,27.0,30.16,NW,310,1.0,1.0,39,0.00,,,0.00,Wunderground v.1.15,2013-05-14 00:03:00,
2013-05-13 20:09:00,50.8,27.3,30.16,NW,311,0.0,0.0,40,0.00,,,0.00,Wunderground v.1.15,2013-05-14 00:09:00,
2013-05-13 20:14:00,50.6,26.5,30.16,NW,311,0.0,0.0,39,0.00,,,0.00,Wunderground v.1.15,2013-05-14 00:14:00,
2013-05-13 20:20:00,50.4,26.3,30.15,NW,311,0.0,0.0,39,0.00,,,0.00,Wunderground v.1.15,2013-05-14 00:20:00,
2013-05-13 20:25:00,50.3,27.5,30.15,NW,311,0.0,0.0,41,0.00,,,0.00,Wunderground v.1.15,2013-05-14 00:25:00,
2013-05-13 20:31:00,50.1,27.3,30.15,NW,311,0.0,0.0,41,0.00,,,0.00,Wunderground v.1.15,2013-05-14 00:31:00,
2013-05-13 20:36:00,49.9,29.4,30.15,NW,311,0.0,0.0,45,0.00,,,0.00,Wunderground v.1.15,2013-05-14 00:36:00,
2013-05-13 20:41:00,49.6,28.6,30.15,NW,310,0.0,0.0,44,0.00,,,0.00,Wunderground v.1.15,2013-05-14 00:41:00,
2013-05-13 20:46:00,49.2,29.3,30.15,NW,311,0.0,0.0,46,0.00,,,0.00,Wunderground v.1.15,2013-05-14 00:46:00,
2013-05-13 20:52:00,48.7,29.4,30.15,NW,310,0.0,0.0,47,0.00,,,0.00,Wunderground v.1.15,2013-05-14 00:52:00,
2013-05-13 20:57:00,48.0,28.7,30.15,NW,310,0.0,0.0,47,0.00,,,0.00,Wunderground v.1.15,2013-05-14 00:57:00,
2013-05-13 21:03:00,47.5,29.8,30.14,NW,311,0.0,0.0,50,0.00,,,0.00,Wunderground v.1.15,2013-05-14 01:03:00,
2013-05-13 21:08:00,46.9,29.7,30.14,NW,310,0.0,0.0,51,0.00,,,0.00,Wunderground v.1.15,2013-05-14 01:08:00,
2013-05-13 21:14:00,46.2,30.0,30.14,NW,311,0.0,0.0,53,0.00,,,0.00,Wunderground v.1.15,2013-05-14 01:14:00,
2013-05-13 21:19:00,45.7,30.4,30.14,NW,311,0.0,0.0,55,0.00,,,0.00,Wunderground v.1.15,2013-05-14 01:19:00,
2013-05-13 21:24:00,45.2,30.0,30.14,NW,311,0.0,0.0,55,0.00,,,0.00,Wunderground v.1.15,2013-05-14 01:24:00,
2013-05-13 21:29:00,44.8,30.9,30.14,NW,310,0.0,0.0,58,0.00,,,0.00,Wunderground v.1.15,2013-05-14 01:29:00,
2013-05-13 21:35:00,44.4,31.4,30.14,NW,311,0.0,0.0,60,0.00,,,0.00,Wunderground v.1.15,2013-05-14 01:35:00,
2013-05-13 21:40:00,43.9,30.9,30.14,NW,311,0.0,0.0,60,0.00,,,0.00,Wunderground v.1.15,2013-05-14 01:40:00,
2013-05-13 21:46:00,43.5,31.3,30.14,NW,310,0.0,0.0,62,0.00,,,0.00,Wunderground v.1.15,2013-05-14 01:46:00,
2013-05-13 21:51:00,43.2,32.6,30.14,NW,311,0.0,0.0,66,0.00,,,0.00,Wunderground v.1.15,2013-05-14 01:51:00,
2013-05-13 21:56:00,42.9,32.3,30.14,NW,311,0.0,0.0,66,0.00,,,0.00,Wunderground v.1.15,2013-05-14 01:56:00,
2013-05-13 22:03:00,42.6,33.1,30.14,NW,311,0.0,0.0,69,0.00,,,0.00,Wunderground v.1.15,2013-05-14 02:03:00,
2013-05-13 22:08:00,42.4,33.3,30.14,NW,310,0.0,0.0,70,0.00,,,0.00,Wunderground v.1.15,2013-05-14 02:08:00,
2013-05-13 22:13:00,42.1,33.0,30.14,NW,311,0.0,0.0,70,0.00,,,0.00,Wunderground v.1.15,2013-05-14 02:13:00,
2013-05-13 22:19:00,41.9,33.9,30.14,NW,310,0.0,0.0,73,0.00,,,0.00,Wunderground v.1.15,2013-05-14 02:19:00,
2013-05-13 22:25:00,41.8,34.1,30.14,NW,310,0.0,0.0,74,0.00,,,0.00,Wunderground v.1.15,2013-05-14 02:25:00,
2013-05-13 22:31:00,41.7,34.4,30.14,NW,310,0.0,0.0,75,0.00,,,0.00,Wunderground v.1.15,2013-05-14 02:31:00,
2013-05-13 22:37:00,41.7,34.4,30.14,NW,311,0.0,0.0,75,0.00,,,0.00,Wunderground v.1.15,2013-05-14 02:37:00,
2013-05-13 22:43:00,41.6,34.3,30.14,NW,310,0.0,0.0,75,0.00,,,0.00,Wunderground v.1.15,2013-05-14 02:43:00,
2013-05-13 22:48:00,41.6,33.6,30.14,NW,311,0.0,0.0,73,0.00,,,0.00,Wunderground v.1.15,2013-05-14 02:48:00,
2013-05-13 22:53:00,41.7,33.3,30.14,NW,311,0.0,0.0,72,0.00,,,0.00,Wunderground v.1.15,2013-05-14 02:53:00,
2013-05-13 22:59:00,41.9,31.4,30.14,NW,311,0.0,0.0,66,0.00,,,0.00,Wunderground v.1.15,2013-05-14 02:59:00,
2013-05-13 23:04:00,42.3,30.6,30.14,NW,311,0.0,0.0,63,0.00,,,0.00,Wunderground v.1.15,2013-05-14 03:04:00,
2013-05-13 23:10:00,42.5,30.8,30.14,NW,310,0.0,0.0,63,0.00,,,0.00,Wunderground v.1.15,2013-05-14 03:10:00,
2013-05-13 23:15:00,42.7,30.6,30.14,NW,311,0.0,0.0,62,0.00,,,0.00,Wunderground v.1.15,2013-05-14 03:15:00,
2013-05-13 23:20:00,42.8,30.7,30.14,NW,310,0.0,0.0,62,0.00,,,0.00,Wunderground v.1.15,2013-05-14 03:20:00,
2013-05-13 23:26:00,43.0,30.9,30.14,NW,311,0.0,0.0,62,0.00,,,0.00,Wunderground v.1.15,2013-05-14 03:26:00,
2013-05-13 23:31:00,43.1,32.1,30.14,NW,311,0.0,0.0,65,0.00,,,0.00,Wunderground v.1.15,2013-05-14 03:31:00,
2013-05-13 23:37:00,43.2,31.8,30.14,NW,311,0.0,0.0,64,0.00,,,0.00,Wunderground v.1.15,2013-05-14 03:37:00,
2013-05-13 23:42:00,43.2,31.4,30.14,NW,311,0.0,0.0,63,0.00,,,0.00,Wunderground v.1.15,2013-05-14 03:42:00,
2013-05-13 23:48:00,43.2,31.4,30.13,NW,310,0.0,0.0,63,0.00,,,0.00,Wunderground v.1.15,2013-05-14 03:48:00,
2013-05-13 23:53:00,43.2,31.4,30.14,NW,311,0.0,0.0,63,0.00,,,0.00,Wunderground v.1.15,2013-05-14 03:53:00,